STARLINK-2616 (48695 NORAD) Tracking and Keplerian Element Data

This shows tracking and keplerian element data for the satellite.

Feedback or suggestion? Click here.




ElementValue
Catalog48695
NameSTARLINK-2616
Epoch Orbit173
Epoch Day170.58334491
Epoch Year2021
RAAN306.235
Inclination53.0481
Eccentricity0.0001431
Argument of Perigee54.2185
Mean Anonmoly82.8654
Mean Motion15.7325565
Decay Rate-0.00085572
L11 48695U 21044BK 21170.58334491 -.00085572 00000-0 -60991-3 0 9998
L22 48695 53.0481 306.2350 0001431 54.2185 82.8654 15.73255650 1731

Live tracking and technical data element details for STARLINK-2616 (NORAD 48695). STARLINK-2616 can be tracked NOW for your location showing map with azimuth and elevation plus other details from your city location.

Track the satellite on the map from your city or location and see movement details for azimuth, elevation, latitude, longitude, range, height, and movement on the map or in text.







IsCatalogInMostPopularTable: catalog: 48695, numindb: 3
Update: records affected: 1



GetName: 48695 STARLINK-2616

Hit Count: updated at: Mon, 21 Jun 2021 04:54:54 GMT